SCP
8 10 14 14 13 11 10 9 8 6 5 5 5 6 5 5 4 4 3 3 2 2 2 2 2 2 1 1 1 1 1 1 1 0 0 0 0 0 0 0 0 1 1
8 11 15 15 12 11 10 9 7 6 5 5 5 5 6 5 4 4 3 3 2 2 2 2 2 1 1 1 1 1 1 1 0 0 0 0 1 1 1 1 1 1 1
8 10 12 11 9 9 9 8 6 6 5 5 5 5 6 6 5 4 4 3 3 2 2 2 2 2 1 1 1 1 1 1 0 0 1 1 1 1 1 1 1 1 1
7 7 8 7 6 7 8 7 6 6 5 5 5 5 5 5 5 5 4 4 4 3 3 3 3 2 2 1 1 1 1 1 1 1 1 1 1 1 1 1 1 1 1
5 5 6 7 6 6 7 7 6 6 5 5 5 4 4 4 5 5 5 4 4 4 3 3 3 3 2 2 1 1 1 1 1 1 1 1 1 1 1 1 1 1 1
5 5 7 8 7 6 6 7 7 6 5 5 5 4 4 4 5 5 5 4 4 4 4 3 3 3 3 2 2 1 1 1 1 1 1 1 1 1 1 0 0 0 0
4 5 7 9 9 8 7 7 7 6 4 4 4 4 4 4 4 4 4 3 3 3 4 4 4 3 3 2 2 2 2 2 2 2 2 1 1 1 1 1 0 0 0
3 4 6 10 11 9 8 7 7 5 4 4 4 4 3 3 3 3 3 3 3 3 4 5 4 3 3 2 2 2 2 2 2 2 1 1 1 1 1 1 0 0 0
2 3 6 9 10 9 7 7 6 5 4 3 3 3 2 3 3 3 2 2 3 3 4 5 4 3 3 2 2 2 2 2 1 1 1 1 1 1 1 1 0 0 0
2 2 4 6 7 6 6 6 6 5 5 4 2 2 2 3 3 3 3 3 3 3 4 4 4 3 3 3 2 2 2 2 1 1 1 0 0 0 1 1 1 1 1
2 2 3 4 4 4 5 5 4 5 5 4 2 2 2 2 3 3 3 3 3 3 4 4 3 3 3 3 3 2 2 2 2 1 1 1 1 1 1 1 1 1 1
2 3 4 4 4 4 4 3 3 3 3 3 2 2 2 2 3 3 3 3 3 3 3 3 3 3 2 2 2 2 2 2 2 1 1 1 1 1 1 1 1 1 1
3 4 4 4 4 3 3 3 3 3 2 2 2 2 2 2 3 3 3 3 3 3 3 3 3 3 3 2 2 2 2 2 2 2 1 1 1 1 1 1 1 1 1
4 4 4 4 3 3 2 2 2 2 2 2 2 3 3 3 3 3 3 3 3 3 3 4 4 3 3 3 2 2 2 2 2 2 2 1 1 1 1 1 1 1 1
3 4 4 4 3 3 3 3 3 3 3 3 3 3 3 3 3 3 3 3 3 3 3 3 4 4 3 2 2 2 1 2 2 2 1 1 1 1 1 1 1 1 1
3 3 4 4 3 3 3 3 3 3 3 3 3 4 4 3 2 2 2 3 3 2 2 3 3 3 2 1 1 1 1 2 2 2 1 1 1 1 1 1 1 1 1
5 5 4 4 4 4 4 3 3 3 3 3 3 3 3 3 2 2 2 3 3 3 2 3 3 2 2 1 0 1 1 2 2 2 2 1 1 1 1 1 1 1 1
7 6 6 5 5 5 4 4 4 3 3 3 3 3 3 2 2 2 2 3 3 3 3 3 3 3 2 1 0 0 1 2 2 2 2 2 1 1 2 2 1 1 1
7 6 6 5 5 5 5 5 4 4 3 3 3 3 3 3 3 3 3 3 4 4 4 4 3 3 3 1 0 0 1 1 2 2 2 2 2 1 1 2 2 2 2
6 6 6 5 5 5 5 4 4 4 3 3 3 4 4 5 5 4 4 4 4 4 4 4 4 4 3 2 0 0 1 1 1 2 2 1 1 1 1 1 2 2 2
6 7 7 6 6 6 5 4 4 3 3 3 3 4 5 5 5 5 5 5 5 4 4 4 4 4 3 2 1 0 0 1 1 2 2 1 1 0 0 1 1 1 1
7 7 7 6 6 6 5 4 4 4 4 4 5 5 5 5 5 5 5 5 5 5 4 4 4 4 3 2 1 0 0 1 1 1 1 1 0 0 0 0 0 1 1
6 7 6 6 5 5 5 4 4 4 4 5 6 6 6 5 5 6 6 5 5 4 4 3 4 4 4 3 2 1 0 0 1 1 1 0 0 0 0 0 0 0 0
5 5 5 5 4 4 4 4 4 4 4 5 5 6 7 7 7 7 6 5 4 3 3 3 3 4 4 4 3 1 0 0 0 0 0 0 0 0 0 0 0 0 0
3 3 3 3 3 3 4 4 4 4 4 4 4 5 7 8 8 6 4 3 3 2 2 2 3 3 4 3 2 1 0 0 0 0 0 0 0 1 1 0 0 0 0
2 2 2 2 1 2 4 5 5 4 3 3 4 5 6 8 8 5 3 2 1 1 1 1 2 2 2 1 1 0 0 0 0 0 0 0 1 1 1 1 1 0 0
Wind_Speed
11 10 10 11 12 11 12 12 12 11 10 8 8 7 6 5 5 5 8 7 7 6 4 4 5 3 2 2 3 2 2 2 1 0 1 1 2 2 3 2 2 4 5
10 11 11 11 11 12 12 12 13 13 11 8 7 6 7 5 5 5 7 8 7 7 6 5 5 4 3 3 2 2 2 2 2 1 1 2 1 2 3 3 3 3 4
12 12 12 11 11 12 12 12 13 13 12 10 7 6 5 4 5 6 6 7 7 7 5 6 5 4 4 3 3 3 3 2 2 2 1 1 1 2 2 3 3 3 2
11 12 12 11 11 11 11 10 11 11 11 11 10 11 9 8 7 6 6 7 7 7 6 6 5 4 3 4 4 5 3 3 2 2 1 1 0 0 1 2 2 4 3
10 11 11 11 10 11 11 10 11 11 11 11 11 10 8 7 6 7 8 7 6 7 7 6 5 4 3 4 3 3 3 2 3 2 2 2 1 3 2 2 3 3 3
9 9 9 9 9 10 10 10 11 11 12 12 11 10 10 8 8 9 8 7 6 5 7 7 5 5 4 4 3 3 3 2 1 1 1 2 2 2 2 2 4 4 3
9 9 9 10 10 10 10 10 12 12 12 12 11 10 10 9 9 9 8 8 7 6 7 7 5 5 4 4 4 3 3 3 2 2 2 2 1 1 1 1 2 1 2
9 8 9 9 10 10 10 11 11 11 12 11 10 9 9 7 7 8 8 8 6 6 7 6 6 5 5 5 4 4 4 3 3 3 2 2 2 2 1 1 1 1 2
10 8 9 9 9 10 10 11 11 10 11 10 9 9 9 8 8 8 7 6 5 6 8 7 7 6 5 5 5 3 4 3 3 3 3 2 2 2 2 1 1 1 2
9 9 9 9 8 9 9 9 10 10 10 10 9 10 9 9 8 8 7 6 6 6 8 7 7 6 6 5 5 4 4 4 4 3 3 2 2 2 2 2 1 1 1
10 9 9 9 9 8 9 9 10 10 10 10 9 9 9 9 8 7 7 6 6 7 7 7 6 6 6 5 5 4 5 5 5 4 4 3 3 2 2 2 1 1 1
10 10 11 11 10 9 8 8 10 10 10 10 9 8 8 9 9 8 7 7 7 7 7 7 6 7 7 6 6 6 6 6 6 5 4 4 4 3 2 2 2 2 1
9 10 10 10 10 10 9 8 9 10 11 10 10 9 9 9 9 8 8 8 8 7 8 7 7 7 7 7 6 6 5 6 6 6 5 5 5 4 3 3 3 2 3
8 9 8 8 8 8 8 9 9 11 11 10 10 9 9 8 8 8 8 8 8 8 8 8 7 7 7 7 7 7 6 5 5 5 5 5 6 6 5 4 4 4 3
8 8 8 7 7 7 7 8 9 9 10 11 10 9 9 8 8 8 8 8 8 9 8 8 7 7 7 8 8 7 8 6 6 5 5 6 7 6 5 5 4 4 4
5 6 7 7 7 7 7 7 7 8 8 9 9 9 9 9 8 8 8 8 8 7 8 8 8 8 8 9 11 8 6 6 6 6 5 6 6 8 9 8 7 5 5
4 3 5 5 5 5 6 7 7 8 8 8 9 9 9 9 9 10 9 9 8 7 7 7 7 7 6 8 10 11 6 5 5 6 5 7 7 8 7 9 11 10 11
5 4 2 3 4 4 5 5 7 7 7 8 8 8 9 9 9 8 8 8 7 6 6 6 6 6 7 9 9 10 7 5 5 5 5 6 5 5 5 6 7 8 8
7 6 4 3 3 3 4 5 5 6 6 6 6 7 8 8 8 8 7 6 6 6 5 5 5 5 5 7 9 9 5 5 5 6 5 5 5 5 6 5 6 6 6
7 7 6 6 5 3 4 5 5 5 5 5 5 5 5 6 5 5 5 5 5 5 5 4 4 4 3 4 6 7 4 4 5 5 5 5 5 5 6 5 5 6 6
8 8 9 8 7 6 5 5 4 3 3 4 4 4 4 5 5 4 3 3 4 4 3 3 2 2 2 3 5 7 3 3 4 3 3 2 2 4 5 5 5 6 5
10 10 10 10 9 8 8 8 6 4 4 5 5 5 5 4 3 4 3 3 3 4 3 3 2 2 2 2 4 6 5 3 2 2 2 1 0 3 5 5 6 7 6
10 10 11 11 10 10 9 8 6 6 6 7 7 6 6 5 5 5 4 3 2 2 2 2 2 1 1 2 2 4 4 4 2 2 3 3 3 3 4 7 8 6 4
10 10 12 12 11 11 11 9 7 6 7 7 7 7 7 7 6 6 5 4 3 2 2 1 1 2 2 2 2 0 1 2 3 3 4 5 6 5 5 4 4 5 5
10 11 11 11 10 10 10 10 8 7 7 7 6 6 6 6 6 7 7 6 6 5 3 3 3 2 2 3 4 2 2 2 1 3 3 3 3 3 2 3 3 3 3
10 11 12 12 10 10 10 9 8 7 6 6 5 4 4 4 5 7 7 11 8 9 10 8 6 5 4 3 4 4 3 3 3 1 2 2 2 2 3 3 2 2 2
Wind_Direction
162 162 168 168 166 167 167 169 170 166 165 167 172 169 172 169 163 159 156 167 167 162 171 148 152 168 150 151 154 148 167 209 195 216 153 192 190 172 154 193 176 169 169
155 157 165 167 171 172 172 173 173 171 172 172 170 169 165 170 169 161 158 170 167 163 177 152 166 164 152 167 169 155 183 214 183 194 178 178 200 224 194 177 182 178 165
162 163 169 173 178 178 179 183 178 174 174 168 166 164 156 170 166 159 163 175 169 171 176 165 170 167 173 168 178 177 206 220 208 206 203 210 185 178 181 208 175 148 161
160 166 170 175 181 182 181 177 175 174 172 169 175 173 171 177 173 167 167 174 174 175 176 174 169 171 171 159 195 187 204 205 223 214 201 195 73 183 148 220 169 165 182
163 167 173 175 177 181 179 177 176 177 175 177 178 178 178 179 170 169 165 171 177 181 180 173 164 171 176 169 193 168 206 207 224 226 206 212 212 241 205 192 176 188 185
155 160 164 162 168 177 176 174 176 178 176 178 181 182 181 179 174 172 166 171 174 183 180 172 167 178 180 168 178 171 201 229 247 284 264 205 208 232 241 199 192 195 194
148 155 160 165 171 176 175 175 174 178 178 179 181 185 183 183 180 175 172 176 176 180 180 173 168 180 170 167 171 180 204 207 215 245 281 288 261 254 270 243 225 190 170
147 152 159 160 169 172 171 172 172 176 177 180 182 183 182 182 183 183 178 182 180 175 167 162 169 174 171 177 172 190 197 188 200 230 247 301 300 309 295 287 288 256 226
141 150 154 154 160 164 165 167 166 170 174 176 176 181 184 186 183 180 181 179 176 167 160 164 171 174 176 177 172 203 190 170 193 222 214 244 271 281 289 285 270 241 265
142 146 146 149 152 153 156 161 164 166 165 170 177 178 182 184 179 176 182 176 171 160 158 164 169 171 174 177 182 194 181 182 206 218 206 214 259 251 253 263 263 261 267
142 142 142 144 143 149 159 162 165 165 166 172 179 175 178 181 176 177 180 173 162 157 161 167 170 172 178 181 187 206 180 192 206 215 204 202 253 287 283 258 254 255 261
143 141 140 142 146 154 160 163 167 168 169 171 174 175 174 175 177 180 181 172 164 164 167 174 177 183 186 186 193 213 198 196 201 209 213 203 215 222 267 285 266 251 237
131 134 137 142 150 154 156 165 170 171 171 173 177 175 175 176 181 182 178 174 171 176 177 182 187 192 192 191 199 211 215 207 205 206 209 211 216 216 221 240 264 265 254
125 129 132 138 145 152 157 165 172 173 172 173 179 178 180 181 184 182 179 179 178 181 183 186 191 195 197 197 201 210 218 217 214 211 210 213 215 215 216 228 238 257 269
130 133 139 142 147 153 159 168 172 173 173 175 180 180 180 181 185 184 184 182 182 189 187 191 197 198 203 207 203 206 212 212 218 220 217 221 219 216 210 226 223 232 240
121 135 141 148 156 161 168 171 174 173 172 178 182 180 180 182 185 186 186 185 189 193 188 195 201 204 213 207 199 199 211 203 210 219 223 225 220 216 215 226 234 235 239
89 111 141 147 154 169 173 173 176 173 177 182 185 183 184 186 188 194 190 190 191 193 194 197 198 206 217 203 192 198 207 212 213 214 215 232 232 213 217 222 229 239 241
64 65 78 134 155 167 169 171 174 173 180 185 189 187 188 191 191 193 190 190 188 190 194 198 200 204 214 198 192 197 210 226 230 229 224 226 250 239 226 228 228 232 236
51 43 41 72 116 148 161 159 164 170 176 181 185 184 184 186 186 188 187 184 182 189 193 194 203 209 211 195 193 193 208 222 235 241 242 232 228 234 231 233 241 245 247
47 44 44 53 63 81 135 143 158 159 168 174 176 175 169 171 179 182 176 176 178 187 189 194 198 202 202 185 188 194 217 226 235 234 236 245 243 241 226 236 246 253 260
51 50 52 51 45 53 79 100 104 113 138 145 138 136 138 146 149 148 147 152 166 170 176 169 158 153 168 159 170 181 212 241 246 247 234 221 213 225 226 231 242 250 266
58 59 59 54 45 45 64 73 66 64 82 93 97 103 105 122 137 128 129 134 149 156 165 158 155 153 151 135 163 178 207 257 289 298 318 16 248 236 238 234 248 258 265
62 60 64 61 52 46 53 63 58 64 71 74 77 78 83 78 72 89 98 101 107 138 147 147 151 135 111 102 135 184 213 238 251 292 321 317 292 270 252 245 251 258 253
63 63 63 61 54 47 46 46 49 61 73 76 76 77 80 77 69 67 67 69 65 70 89 99 115 106 73 48 39 118 221 239 260 281 282 277 270 264 267 265 246 238 243
68 66 65 63 57 51 46 41 41 54 69 74 78 82 83 88 81 73 58 65 57 51 57 53 55 66 62 31 27 29 12 347 339 302 274 263 260 257 261 262 258 250 245
72 70 68 65 57 53 48 42 35 42 55 64 68 85 98 100 104 103 82 55 68 69 72 71 76 81 82 74 53 38 9 342 342 303 284 302 319 318 318 315 308 306 314